When you browse on this site, cookies collect data to enhance your experience and personalize the content and advertising you see.
Visit our Privacy Policy to learn more. By continuing to use the site, you agree to this use of cookies and data.
  • Em Portugal
  • Lista de países
  • Para 7 dias
  • Temperatura da água
  • Mapas de satélite
  • Mapa do tempo
  • Widgets de tempo
  • user-avatar
    Iniciar Sessão

    Previsão horária em Bolotnya

    Hoje, 20 Abril, Sábado

    Tempo Temperatura Precipitação Vento Pressão Humidade
    00:00 +8°C° 0 mm 1 m/s 760 mmHg 52%
    01:00 +8°C° 0 mm 1 m/s 759 mmHg 54%
    02:00 +7°C° 0 mm 1 m/s 759 mmHg 57%
    03:00 +7°C° 0 mm 1 m/s 759 mmHg 59%
    04:00 +7°C° 0 mm 1 m/s 758 mmHg 60%
    05:00 +6°C° 0 mm 2 m/s 758 mmHg 61%
    06:00 +7°C° 0 mm 2 m/s 758 mmHg 58%
    07:00 +9°C° 0 mm 2 m/s 758 mmHg 55%
    08:00 +10°C° 0 mm 2 m/s 758 mmHg 52%
    09:00 +13°C° 0 mm 2 m/s 757 mmHg 48%
    10:00 +14°C° 0 mm 2 m/s 757 mmHg 44%
    11:00 +16°C° 0 mm 2 m/s 757 mmHg 40%
    12:00 +18°C° 0 mm 1 m/s 757 mmHg 36%
    13:00 +19°C° 0 mm 1 m/s 756 mmHg 33%
    14:00 +20°C° 0 mm 1 m/s 756 mmHg 30%
    15:00 +19°C° 0 mm 1 m/s 755 mmHg 33%
    16:00 +18°C° 0 mm 1 m/s 755 mmHg 36%
    17:00 +18°C° 0 mm 1 m/s 755 mmHg 39%
    18:00 +15°C° 0 mm 1 m/s 755 mmHg 45%
    19:00 +14°C° 0 mm 1 m/s 755 mmHg 51%
    20:00 +12°C° 0 mm 1 m/s 755 mmHg 57%
    21:00 +12°C° 0.1 mm 1 m/s 755 mmHg 62%
    22:00 +11°C° 0.1 mm 1 m/s 754 mmHg 67%
    23:00 +9°C° 0.1 mm 0 m/s 754 mmHg 71%

    Amanhã, 21 Abril, Domingo

    Tempo Temperatura Precipitação Vento Pressão Humidade
    00:00 +9°C° 0 mm 0 m/s 754 mmHg 74%
    01:00 +8°C° 0 mm 0 m/s 754 mmHg 76%
    02:00 +8°C° 0 mm 0 m/s 754 mmHg 78%
    03:00 +8°C° 0.4 mm 0 m/s 754 mmHg 80%
    04:00 +8°C° 0.4 mm 1 m/s 754 mmHg 82%
    05:00 +8°C° 0.4 mm 1 m/s 753 mmHg 85%
    06:00 +9°C° 0.4 mm 1 m/s 753 mmHg 82%
    07:00 +9°C° 0.4 mm 2 m/s 753 mmHg 80%
    08:00 +10°C° 0.4 mm 2 m/s 753 mmHg 78%
    09:00 +12°C° 0.1 mm 2 m/s 753 mmHg 72%
    10:00 +12°C° 0.1 mm 3 m/s 753 mmHg 66%
    11:00 +14°C° 0.1 mm 3 m/s 753 mmHg 60%
    12:00 +14°C° 1.4 mm 3 m/s 752 mmHg 58%
    13:00 +14°C° 1.4 mm 4 m/s 752 mmHg 56%
    14:00 +15°C° 1.4 mm 4 m/s 752 mmHg 55%
    15:00 +14°C° 0.7 mm 4 m/s 752 mmHg 58%
    16:00 +14°C° 0.7 mm 4 m/s 752 mmHg 60%
    17:00 +13°C° 0.7 mm 4 m/s 752 mmHg 63%
    18:00 +12°C° 0.4 mm 4 m/s 752 mmHg 67%
    19:00 +11°C° 0.4 mm 4 m/s 753 mmHg 72%
    20:00 +9°C° 0.4 mm 5 m/s 753 mmHg 76%
    21:00 +9°C° 0 mm 5 m/s 753 mmHg 77%
    22:00 +8°C° 0 mm 5 m/s 754 mmHg 78%
    23:00 +8°C° 0 mm 5 m/s 754 mmHg 79%

    Depois de amanhã, 22 Abril, Segunda-feira

    Tempo Temperatura Precipitação Vento Pressão Humidade
    00:00 +8°C° 0 mm 5 m/s 755 mmHg 77%
    01:00 +8°C° 0 mm 5 m/s 755 mmHg 75%
    02:00 +8°C° 0 mm 5 m/s 755 mmHg 74%
    03:00 +7°C° 0 mm 4 m/s 756 mmHg 73%
    04:00 +7°C° 0 mm 4 m/s 756 mmHg 73%
    05:00 +7°C° 0 mm 4 m/s 757 mmHg 72%
    06:00 +8°C° 0 mm 4 m/s 757 mmHg 67%
    07:00 +10°C° 0 mm 4 m/s 757 mmHg 62%
    08:00 +10°C° 0 mm 5 m/s 758 mmHg 58%
    09:00 +12°C° 0 mm 5 m/s 758 mmHg 51%
    10:00 +13°C° 0 mm 5 m/s 758 mmHg 45%
    11:00 +15°C° 0 mm 5 m/s 758 mmHg 39%
    12:00 +15°C° 0 mm 5 m/s 758 mmHg 39%
    13:00 +15°C° 0 mm 4 m/s 758 mmHg 39%
    14:00 +15°C° 0 mm 4 m/s 759 mmHg 38%
    15:00 +14°C° 0 mm 4 m/s 759 mmHg 39%
    16:00 +14°C° 0 mm 4 m/s 759 mmHg 40%
    17:00 +14°C° 0 mm 3 m/s 759 mmHg 41%
    18:00 +13°C° 0 mm 3 m/s 759 mmHg 45%
    19:00 +12°C° 0 mm 3 m/s 759 mmHg 49%
    20:00 +10°C° 0 mm 2 m/s 759 mmHg 53%
    21:00 +10°C° 0 mm 2 m/s 759 mmHg 55%
    22:00 +9°C° 0 mm 2 m/s 760 mmHg 57%
    23:00 +8°C° 0 mm 2 m/s 760 mmHg 59%

    23 Abril, Terça-feira

    Tempo Temperatura Precipitação Vento Pressão Humidade
    00:00 +9°C° 0 mm 2 m/s 760 mmHg 58%
    01:00 +9°C° 0 mm 2 m/s 760 mmHg 57%
    02:00 +9°C° 0 mm 2 m/s 760 mmHg 56%
    03:00 +9°C° 0 mm 2 m/s 760 mmHg 57%
    04:00 +9°C° 0 mm 2 m/s 760 mmHg 57%
    05:00 +8°C° 0 mm 2 m/s 760 mmHg 58%
    06:00 +10°C° 0 mm 3 m/s 761 mmHg 53%
    07:00 +11°C° 0 mm 4 m/s 761 mmHg 48%
    08:00 +12°C° 0 mm 4 m/s 761 mmHg 44%
    09:00 +13°C° 0 mm 5 m/s 761 mmHg 41%
    10:00 +14°C° 0 mm 5 m/s 761 mmHg 38%
    11:00 +15°C° 0 mm 5 m/s 761 mmHg 35%
    12:00 +15°C° 0 mm 6 m/s 760 mmHg 35%
    13:00 +16°C° 0 mm 6 m/s 760 mmHg 35%
    14:00 +16°C° 0 mm 6 m/s 760 mmHg 35%
    15:00 +16°C° 0 mm 6 m/s 759 mmHg 36%
    16:00 +15°C° 0 mm 6 m/s 759 mmHg 38%
    17:00 +15°C° 0 mm 6 m/s 759 mmHg 40%
    18:00 +14°C° 0 mm 5 m/s 759 mmHg 45%
    19:00 +12°C° 0 mm 4 m/s 759 mmHg 50%
    20:00 +11°C° 0 mm 3 m/s 759 mmHg 55%
    21:00 +10°C° 0 mm 4 m/s 759 mmHg 56%
    22:00 +10°C° 0 mm 4 m/s 759 mmHg 57%
    23:00 +8°C° 0 mm 4 m/s 759 mmHg 59%

    24 Abril, Quarta-feira

    Tempo Temperatura Precipitação Vento Pressão Humidade
    00:00 +8°C° 0 mm 4 m/s 759 mmHg 59%
    01:00 +8°C° 0 mm 4 m/s 759 mmHg 60%
    02:00 +7°C° 0 mm 4 m/s 760 mmHg 61%
    03:00 +7°C° 0 mm 4 m/s 759 mmHg 62%
    04:00 +7°C° 0 mm 4 m/s 759 mmHg 64%
    05:00 +6°C° 0 mm 4 m/s 759 mmHg 65%
    06:00 +8°C° 0 mm 4 m/s 759 mmHg 61%
    07:00 +9°C° 0 mm 5 m/s 759 mmHg 56%
    08:00 +11°C° 0 mm 6 m/s 759 mmHg 52%
    09:00 +13°C° 0 mm 6 m/s 759 mmHg 47%
    10:00 +15°C° 0 mm 6 m/s 759 mmHg 43%
    11:00 +16°C° 0 mm 7 m/s 759 mmHg 39%
    12:00 +17°C° 0 mm 7 m/s 759 mmHg 38%
    13:00 +17°C° 0 mm 7 m/s 758 mmHg 37%
    14:00 +18°C° 0 mm 7 m/s 758 mmHg 36%
    15:00 +19°C° 0 mm 6 m/s 758 mmHg 38%
    16:00 +19°C° 0 mm 6 m/s 757 mmHg 39%
    17:00 +17°C° 0 mm 6 m/s 757 mmHg 40%
    18:00 +16°C° 0 mm 5 m/s 757 mmHg 45%
    19:00 +14°C° 0 mm 4 m/s 757 mmHg 50%
    20:00 +13°C° 0 mm 4 m/s 757 mmHg 55%
    21:00 +12°C° 0 mm 4 m/s 757 mmHg 57%
    22:00 +12°C° 0 mm 4 m/s 758 mmHg 58%
    23:00 +11°C° 0 mm 4 m/s 758 mmHg 60%

    25 Abril, Quinta-feira

    Tempo Temperatura Precipitação Vento Pressão Humidade
    00:00 +11°C° 0 mm 4 m/s 758 mmHg 61%
    01:00 +10°C° 0 mm 4 m/s 758 mmHg 62%
    02:00 +10°C° 0 mm 4 m/s 758 mmHg 63%
    03:00 +10°C° 0 mm 4 m/s 758 mmHg 64%
    04:00 +8°C° 0 mm 4 m/s 757 mmHg 66%
    05:00 +8°C° 0 mm 4 m/s 757 mmHg 67%
    06:00 +9°C° 0 mm 5 m/s 757 mmHg 63%
    07:00 +12°C° 0 mm 5 m/s 757 mmHg 59%
    08:00 +13°C° 0 mm 5 m/s 757 mmHg 55%
    09:00 +15°C° 0 mm 6 m/s 757 mmHg 50%
    10:00 +16°C° 0 mm 6 m/s 757 mmHg 45%
    11:00 +19°C° 0 mm 6 m/s 757 mmHg 39%
    12:00 +20°C° 0 mm 6 m/s 756 mmHg 39%
    13:00 +20°C° 0 mm 6 m/s 756 mmHg 38%
    14:00 +21°C° 0 mm 5 m/s 756 mmHg 37%
    15:00 +21°C° 0 mm 5 m/s 756 mmHg 40%
    16:00 +20°C° 0 mm 4 m/s 755 mmHg 42%
    17:00 +20°C° 0 mm 4 m/s 755 mmHg 45%
    18:00 +19°C° 0 mm 4 m/s 755 mmHg 49%
    19:00 +17°C° 0 mm 3 m/s 755 mmHg 54%
    20:00 +16°C° 0 mm 3 m/s 755 mmHg 58%
    21:00 +14°C° 0 mm 3 m/s 755 mmHg 60%
    22:00 +13°C° 0 mm 3 m/s 755 mmHg 62%
    23:00 +13°C° 0 mm 3 m/s 755 mmHg 64%
    Mostrar mais